Mattoon, IL

12:48 AM CDT on August 21, 2019 (GMT -0500)
Coles County Memorial

Weather History for KMTO - June, 2019

Change the Weather History Date:

Saturday, June 8, 2019

  Actual Average Record
Temperature  
Mean Temperature 73 °F 70 °F  
Max Temperature 79 °F 80 °F 95 °F (1953)
Min Temperature 66 °F 60 °F 48 °F (1949)
Degree Days  
Heating Degree Days 0 1  
Month to date heating degree days 0 10  
Since 1 June heating degree days 0 10  
Since 1 July heating degree days 5517 5400  
Cooling Degree Days 8 6  
Month to date cooling degree days 64 41  
Year to date cooling degree days 189 129  
Since 1 June cooling degree days 64 41  
Growing Degree Days 22 (Base 50)    
Moisture  
Dew Point 60 °F    
Average Humidity 67    
Maximum Humidity 79    
Minimum Humidity 55    
Precipitation  
Precipitation 0.01 in 0.17 in 0.97 in (1979)
Month to date precipitation 0.01 1.38  
Year to date precipitation 11.64 15.73  
Sea Level Pressure  
Sea Level Pressure 29.84 in    
Wind  
Wind Speed 10 mph (ENE)    
Max Wind Speed 17 mph    
Max Gust Speed 24 mph    
Visibility 10 miles    
Events Rain    
T = Trace of Precipitation, MM = Missing Value Source: NWS Daily Summary

Daily Weather History Graph

Daily Weather History Graph

Search for Another Location

Airport or City:

Astronomy

Jun. 08, 2019 Rise Set
Actual Time 5:25 AM CDT 8:18 PM CDT
Civil Twilight 4:53 AM CDT 8:50 PM CDT
Nautical Twilight 4:13 AM CDT 9:31 PM CDT
Astronomical Twilight 3:26 AM CDT 10:18 PM CDT
Moon 10:52 AM CDT (6/8) 12:20 AM CDT (6/8)
Length of Visible Light 15h 57m
Length of Day
14h 52m
Waxing Crescent, 33% of the Moon is Illuminated
Jun 8
Waxing Crescent
Jun 10
First Quarter
Jun 17
Full
Jun 25
Last Quarter
Jul 2
New

Hourly Weather History & Observations

Time (CDT) Temp. Dew Point Humidity Pressure Visibility Wind Dir Wind Speed Gust Speed Precip Events Conditions
12:53 AM 70.0 °F 53.1 °F 55% 29.84 in 10.0 mi NE 13.8 mph - N/A   Clear
1:53 AM 68.0 °F 53.1 °F 59% 29.83 in 10.0 mi NE 11.5 mph - N/A   Clear
2:53 AM 66.9 °F 52.0 °F 59% 29.83 in 10.0 mi NE 10.4 mph - N/A   Clear
3:53 AM 68.0 °F 51.1 °F 55% 29.83 in 10.0 mi NE 13.8 mph - N/A   Clear
4:53 AM 66.9 °F 51.1 °F 57% 29.83 in 10.0 mi ENE 10.4 mph - N/A   Partly Cloudy
5:53 AM 66.9 °F 51.1 °F 57% 29.83 in 10.0 mi ENE 12.7 mph - N/A   Clear
6:53 AM 68.0 °F 53.1 °F 59% 29.83 in 10.0 mi NE 11.5 mph - 0.00 in   Mostly Cloudy
7:53 AM 69.1 °F 55.0 °F 61% 29.85 in 10.0 mi NE 9.2 mph - N/A   Mostly Cloudy
8:53 AM 72.0 °F 59.0 °F 64% 29.86 in 10.0 mi East 16.1 mph - N/A   Clear
9:17 AM 72.0 °F 59.0 °F 64% 29.87 in 10.0 mi ENE 15.0 mph - N/A   Mostly Cloudy
9:53 AM 71.1 °F 60.1 °F 68% 29.85 in 10.0 mi ENE 13.8 mph - N/A   Overcast
10:53 AM 72.0 °F 62.1 °F 71% 29.86 in 10.0 mi East 12.7 mph - N/A   Overcast
11:53 AM 73.9 °F 63.0 °F 68% 29.86 in 10.0 mi East 15.0 mph 20.7 mph N/A   Overcast
12:53 PM 75.9 °F 64.0 °F 67% 29.85 in 10.0 mi East 10.4 mph - N/A   Overcast
1:26 PM 75.9 °F 64.0 °F 67% 29.85 in 10.0 mi East 11.5 mph - N/A   Overcast
1:53 PM 72.0 °F 68.0 °F 87% 29.84 in 3.0 mi ESE 9.2 mph - N/A Rain Rain
2:53 PM 78.1 °F 66.9 °F 68% 29.83 in 10.0 mi East 9.2 mph - 0.00 in Rain Light Rain
3:53 PM 77.0 °F 66.0 °F 69% 29.83 in 10.0 mi East 8.1 mph - 0.00 in   Overcast
4:53 PM 77.0 °F 66.0 °F 69% 29.83 in 10.0 mi East 8.1 mph - 0.00 in   Overcast
5:53 PM 78.1 °F 66.0 °F 66% 29.82 in 10.0 mi East 12.7 mph - 0.00 in   Scattered Clouds
6:53 PM 78.1 °F 66.0 °F 66% 29.82 in 10.0 mi East 6.9 mph - N/A   Partly Cloudy
7:53 PM 77.0 °F 64.9 °F 66% 29.83 in 10.0 mi East 9.2 mph - N/A   Clear
8:53 PM 75.0 °F 64.0 °F 69% 29.84 in 10.0 mi East 6.9 mph - N/A   Mostly Cloudy
9:53 PM 73.9 °F 64.0 °F 71% 29.85 in 10.0 mi East 8.1 mph - N/A   Overcast
10:53 PM 73.0 °F 64.0 °F 73% 29.85 in 10.0 mi East 5.8 mph - N/A   Clear
11:53 PM 72.0 °F 64.0 °F 76% 29.85 in 10.0 mi East 6.9 mph - N/A   Clear